Year,Month,Day,Hour,Minute,Value (Times are PST for temperature in C)
2010,09,11,00,00,12.60
2010,09,11,00,01,12.60
2010,09,11,00,02,12.60
2010,09,11,00,03,12.60
2010,09,11,00,04,12.60
2010,09,11,00,05,12.60
2010,09,11,00,06,12.60
2010,09,11,00,07,12.60
2010,09,11,00,08,12.50
2010,09,11,00,09,12.50
2010,09,11,00,10,12.40
2010,09,11,00,11,12.40
2010,09,11,00,12,12.30
2010,09,11,00,13,12.30
2010,09,11,00,14,12.20
2010,09,11,00,15,12.20
2010,09,11,00,16,12.20
2010,09,11,00,17,12.10
2010,09,11,00,18,12.10
2010,09,11,00,19,12.00
2010,09,11,00,20,12.00
2010,09,11,00,21,11.90
2010,09,11,00,22,11.90
2010,09,11,00,23,11.90
2010,09,11,00,24,11.80
2010,09,11,00,25,11.80
2010,09,11,00,26,11.80
2010,09,11,00,27,11.80
2010,09,11,00,28,11.80
2010,09,11,00,29,11.80
2010,09,11,00,30,11.80
2010,09,11,00,31,11.70
2010,09,11,00,32,11.70
2010,09,11,00,33,11.70
2010,09,11,00,34,11.60
2010,09,11,00,35,11.60
2010,09,11,00,36,11.60
2010,09,11,00,37,11.50
2010,09,11,00,38,11.40
2010,09,11,00,39,11.40
2010,09,11,00,40,11.40
2010,09,11,00,41,11.30
2010,09,11,00,42,11.30
2010,09,11,00,43,11.30
2010,09,11,00,44,11.30
2010,09,11,00,45,11.30
2010,09,11,00,46,11.30
2010,09,11,00,47,11.30
2010,09,11,00,48,11.30
2010,09,11,00,49,11.30
2010,09,11,00,50,11.30
2010,09,11,00,51,11.30
2010,09,11,00,52,11.30
2010,09,11,00,53,11.20
2010,09,11,00,54,11.20
2010,09,11,00,55,11.10
2010,09,11,00,56,11.10
2010,09,11,00,57,11.10
2010,09,11,00,58,11.00
2010,09,11,00,59,10.90
2010,09,11,01,00,10.90
2010,09,11,01,01,10.80
2010,09,11,01,02,10.80
2010,09,11,01,03,10.70
2010,09,11,01,04,10.60
2010,09,11,01,05,10.60
2010,09,11,01,06,10.50
2010,09,11,01,07,10.50
2010,09,11,01,08,10.40
2010,09,11,01,09,10.40
2010,09,11,01,10,10.40
2010,09,11,01,11,10.30
2010,09,11,01,12,10.30
2010,09,11,01,13,10.30
2010,09,11,01,14,10.30
2010,09,11,01,15,10.30
2010,09,11,01,16,10.30
2010,09,11,01,17,10.30
2010,09,11,01,18,10.20
2010,09,11,01,19,10.20
2010,09,11,01,20,10.20
2010,09,11,01,21,10.20
2010,09,11,01,22,10.20
2010,09,11,01,23,10.30
2010,09,11,01,24,10.30
2010,09,11,01,25,10.30
2010,09,11,01,26,10.30
2010,09,11,01,27,10.30
2010,09,11,01,28,10.30
2010,09,11,01,29,10.30
2010,09,11,01,30,10.20
2010,09,11,01,31,10.20
2010,09,11,01,32,10.20
2010,09,11,01,33,10.20
2010,09,11,01,34,10.20
2010,09,11,01,35,10.20
2010,09,11,01,36,10.20
2010,09,11,01,37,10.20
2010,09,11,01,38,10.20
2010,09,11,01,39,10.10
2010,09,11,01,40,10.10
2010,09,11,01,41,10.10
2010,09,11,01,42,10.00
2010,09,11,01,43,10.00
2010,09,11,01,44,9.90
2010,09,11,01,45,9.80
2010,09,11,01,46,9.80
2010,09,11,01,47,9.70
2010,09,11,01,48,9.70
2010,09,11,01,49,9.70
2010,09,11,01,50,9.70
2010,09,11,01,51,9.60
2010,09,11,01,52,9.60
2010,09,11,01,53,9.60
2010,09,11,01,54,9.60
2010,09,11,01,55,9.50
2010,09,11,01,56,9.50
2010,09,11,01,57,9.50
2010,09,11,01,58,9.50
2010,09,11,01,59,9.50
2010,09,11,02,00,9.50
2010,09,11,02,01,9.40
2010,09,11,02,02,9.40
2010,09,11,02,03,9.40
2010,09,11,02,04,9.30
2010,09,11,02,05,9.30
2010,09,11,02,06,9.30
2010,09,11,02,07,9.30
2010,09,11,02,08,9.20
2010,09,11,02,09,9.20
2010,09,11,02,10,9.20
2010,09,11,02,11,9.20
2010,09,11,02,12,9.20
2010,09,11,02,13,9.20
2010,09,11,02,14,9.20
2010,09,11,02,15,9.20
2010,09,11,02,16,9.10
2010,09,11,02,17,9.10
2010,09,11,02,18,9.10
2010,09,11,02,19,9.10
2010,09,11,02,20,9.00
2010,09,11,02,21,9.00
2010,09,11,02,22,9.00
2010,09,11,02,23,9.00
2010,09,11,02,24,9.00
2010,09,11,02,25,9.00
2010,09,11,02,26,9.00
2010,09,11,02,27,9.00
2010,09,11,02,28,9.00
2010,09,11,02,29,9.10
2010,09,11,02,30,9.00
2010,09,11,02,31,9.00
2010,09,11,02,32,9.00
2010,09,11,02,33,9.00
2010,09,11,02,34,9.00
2010,09,11,02,35,9.00
2010,09,11,02,36,8.90
2010,09,11,02,37,8.90
2010,09,11,02,38,8.90
2010,09,11,02,39,8.90
2010,09,11,02,40,8.90
2010,09,11,02,41,8.90
2010,09,11,02,42,8.90
2010,09,11,02,43,8.90
2010,09,11,02,44,8.80
2010,09,11,02,45,8.80
2010,09,11,02,46,8.80
2010,09,11,02,47,8.70
2010,09,11,02,48,8.70
2010,09,11,02,49,8.70
2010,09,11,02,50,8.70
2010,09,11,02,51,8.70
2010,09,11,02,52,8.70
2010,09,11,02,53,8.70
2010,09,11,02,54,8.70
2010,09,11,02,55,8.70
2010,09,11,02,56,8.70
2010,09,11,02,57,8.70
2010,09,11,02,58,8.70
2010,09,11,02,59,8.80
2010,09,11,03,00,8.80
2010,09,11,03,01,8.80
2010,09,11,03,02,8.80
2010,09,11,03,06,8.90
2010,09,11,03,07,9.00
2010,09,11,03,08,9.00
2010,09,11,03,09,9.10
2010,09,11,03,10,9.10
2010,09,11,03,11,9.10
2010,09,11,03,12,9.10
2010,09,11,03,13,9.10
2010,09,11,03,14,9.10
2010,09,11,03,15,9.10
2010,09,11,03,16,9.10
2010,09,11,03,17,9.10
2010,09,11,03,18,9.10
2010,09,11,03,19,9.10
2010,09,11,03,20,9.10
2010,09,11,03,21,9.10
2010,09,11,03,22,9.10
2010,09,11,03,23,9.10
2010,09,11,03,24,9.10
2010,09,11,03,25,9.10
2010,09,11,03,26,9.10
2010,09,11,03,27,9.10
2010,09,11,03,28,9.10
2010,09,11,03,29,9.10
2010,09,11,03,30,9.10
2010,09,11,03,31,9.00
2010,09,11,03,32,8.90
2010,09,11,03,33,8.90
2010,09,11,03,34,8.80
2010,09,11,03,35,8.70
2010,09,11,03,36,8.70
2010,09,11,03,37,8.70
2010,09,11,03,38,8.60
2010,09,11,03,39,8.60
2010,09,11,03,40,8.50
2010,09,11,03,41,8.50
2010,09,11,03,42,8.50
2010,09,11,03,43,8.50
2010,09,11,03,44,8.50
2010,09,11,03,45,8.50
2010,09,11,03,46,8.40
2010,09,11,03,47,8.40
2010,09,11,03,48,8.40
2010,09,11,03,49,8.40
2010,09,11,03,50,8.30
2010,09,11,03,51,8.30
2010,09,11,03,52,8.30
2010,09,11,03,53,8.20
2010,09,11,03,54,8.20
2010,09,11,03,55,8.20
2010,09,11,03,56,8.20
2010,09,11,03,57,8.10
2010,09,11,03,58,8.10
2010,09,11,03,59,8.10
2010,09,11,04,00,8.10
2010,09,11,04,01,8.10
2010,09,11,04,02,8.10
2010,09,11,04,03,8.10
2010,09,11,04,04,8.10
2010,09,11,04,05,8.10
2010,09,11,04,06,8.00
2010,09,11,04,07,8.00
2010,09,11,04,08,8.00
2010,09,11,04,09,8.00
2010,09,11,04,10,8.00
2010,09,11,04,11,7.90
2010,09,11,04,12,7.90
2010,09,11,04,13,7.90
2010,09,11,04,14,7.90
2010,09,11,04,15,7.90
2010,09,11,04,16,7.90
2010,09,11,04,17,7.90
2010,09,11,04,18,7.90
2010,09,11,04,19,7.90
2010,09,11,04,20,7.90
2010,09,11,04,21,7.90
2010,09,11,04,22,7.90
2010,09,11,04,23,7.90
2010,09,11,04,24,7.90
2010,09,11,04,25,7.90
2010,09,11,04,26,7.80
2010,09,11,04,27,7.80
2010,09,11,04,28,7.80
2010,09,11,04,29,7.80
2010,09,11,04,30,7.90
2010,09,11,04,31,7.90
2010,09,11,04,32,7.90
2010,09,11,04,33,7.90
2010,09,11,04,34,7.90
2010,09,11,04,35,7.90
2010,09,11,04,36,7.90
2010,09,11,04,37,7.90
2010,09,11,04,38,7.90
2010,09,11,04,39,7.90
2010,09,11,04,40,7.90
2010,09,11,04,41,7.90
2010,09,11,04,42,7.90
2010,09,11,04,43,8.00
2010,09,11,04,44,8.00
2010,09,11,04,45,8.00
2010,09,11,04,46,8.00
2010,09,11,04,47,8.00
2010,09,11,04,48,8.00
2010,09,11,04,49,8.00
2010,09,11,04,50,8.00
2010,09,11,04,51,8.00
2010,09,11,04,52,8.00
2010,09,11,04,53,7.90
2010,09,11,04,54,7.90
2010,09,11,04,55,7.90
2010,09,11,04,56,7.90
2010,09,11,04,57,7.90
2010,09,11,04,58,7.90
2010,09,11,04,59,7.90
2010,09,11,05,00,7.90
2010,09,11,05,01,7.90
2010,09,11,05,02,8.00
2010,09,11,05,03,8.00
2010,09,11,05,04,8.00
2010,09,11,05,05,8.00
2010,09,11,05,06,8.00
2010,09,11,05,07,7.90
2010,09,11,05,08,7.90
2010,09,11,05,09,7.90
2010,09,11,05,10,7.90
2010,09,11,05,11,7.90
2010,09,11,05,12,7.90
2010,09,11,05,13,7.90
2010,09,11,05,14,7.90
2010,09,11,05,15,7.90
2010,09,11,05,16,7.90
2010,09,11,05,17,7.90
2010,09,11,05,18,7.90
2010,09,11,05,19,7.90
2010,09,11,05,20,7.90
2010,09,11,05,21,7.90
2010,09,11,05,22,8.00
2010,09,11,05,23,8.00
2010,09,11,05,24,8.10
2010,09,11,05,25,8.10
2010,09,11,05,26,8.10
2010,09,11,05,27,8.10
2010,09,11,05,28,8.10
2010,09,11,05,29,8.10
2010,09,11,05,30,8.10
2010,09,11,05,31,8.20
2010,09,11,05,32,8.20
2010,09,11,05,33,8.20
2010,09,11,05,34,8.20
2010,09,11,05,35,8.20
2010,09,11,05,36,8.20
2010,09,11,05,37,8.10
2010,09,11,05,38,8.10
2010,09,11,05,39,8.10
2010,09,11,05,40,8.10
2010,09,11,05,41,8.10
2010,09,11,05,42,8.10
2010,09,11,05,43,8.10
2010,09,11,05,44,8.10
2010,09,11,05,45,8.00
2010,09,11,05,46,8.00
2010,09,11,05,47,8.00
2010,09,11,05,48,8.00
2010,09,11,05,49,7.90
2010,09,11,05,50,7.90
2010,09,11,05,51,7.90
2010,09,11,05,52,7.80
2010,09,11,05,53,7.80
2010,09,11,05,54,7.80
2010,09,11,05,55,7.80
2010,09,11,05,56,7.80
2010,09,11,05,57,7.80
2010,09,11,05,58,7.80
2010,09,11,05,59,7.80
2010,09,11,06,00,7.70
2010,09,11,06,01,7.70
2010,09,11,06,02,7.70
2010,09,11,06,03,7.70
2010,09,11,06,04,7.70
2010,09,11,06,05,7.70
2010,09,11,06,06,7.70
2010,09,11,06,07,7.60
2010,09,11,06,08,7.60
2010,09,11,06,09,7.60
2010,09,11,06,10,7.60
2010,09,11,06,11,7.50
2010,09,11,06,12,7.50
2010,09,11,06,13,7.50
2010,09,11,06,14,7.50
2010,09,11,06,15,7.50
2010,09,11,06,16,7.50
2010,09,11,06,17,7.50
2010,09,11,06,18,7.50
2010,09,11,06,19,7.50
2010,09,11,06,20,7.60
2010,09,11,06,21,7.60
2010,09,11,06,22,7.60
2010,09,11,06,23,7.60
2010,09,11,06,24,7.60
2010,09,11,06,25,7.60
2010,09,11,06,26,7.60
2010,09,11,06,27,7.60
2010,09,11,06,28,7.60
2010,09,11,06,29,7.60
2010,09,11,06,30,7.50
2010,09,11,06,31,7.50
2010,09,11,06,32,7.50
2010,09,11,06,33,7.50
2010,09,11,06,34,7.40
2010,09,11,06,35,7.40
2010,09,11,06,36,7.40
2010,09,11,06,37,7.40
2010,09,11,06,38,7.40
2010,09,11,06,39,7.40
2010,09,11,06,40,7.40
2010,09,11,06,41,7.40
2010,09,11,06,42,7.50
2010,09,11,06,43,7.40
2010,09,11,06,44,7.40
2010,09,11,06,45,7.50
2010,09,11,06,46,7.50
2010,09,11,06,47,7.40
2010,09,11,06,48,7.40
2010,09,11,06,49,7.40
2010,09,11,06,50,7.40
2010,09,11,06,51,7.40
2010,09,11,06,52,7.40
2010,09,11,06,53,7.40
2010,09,11,06,54,7.40
2010,09,11,06,55,7.30
2010,09,11,06,56,7.30
2010,09,11,06,57,7.30
2010,09,11,06,58,7.30
2010,09,11,06,59,7.30
2010,09,11,07,00,7.30
2010,09,11,07,01,7.20
2010,09,11,07,02,7.20
2010,09,11,07,03,7.20
2010,09,11,07,04,7.20
2010,09,11,07,05,7.20
2010,09,11,07,06,7.20
2010,09,11,07,07,7.20
2010,09,11,07,08,7.20
2010,09,11,07,09,7.20
2010,09,11,07,10,7.20
2010,09,11,07,11,7.20
2010,09,11,07,12,7.20
2010,09,11,07,13,7.20
2010,09,11,07,14,7.20
2010,09,11,07,15,7.20
2010,09,11,07,16,7.20
2010,09,11,07,17,7.30
2010,09,11,07,18,7.30
2010,09,11,07,19,7.30
2010,09,11,07,20,7.30
2010,09,11,07,21,7.30
2010,09,11,07,22,7.30
2010,09,11,07,23,7.30
2010,09,11,07,24,7.30
2010,09,11,07,25,7.30
2010,09,11,07,26,7.30
2010,09,11,07,27,7.30
2010,09,11,07,28,7.30
2010,09,11,07,29,7.30
2010,09,11,07,30,7.30
2010,09,11,07,31,7.30
2010,09,11,07,32,7.30
2010,09,11,07,33,7.40
2010,09,11,07,34,7.40
2010,09,11,07,35,7.40
2010,09,11,07,36,7.40
2010,09,11,07,37,7.40
2010,09,11,07,38,7.40
2010,09,11,07,39,7.40
2010,09,11,07,40,7.40
2010,09,11,07,41,7.40
2010,09,11,07,42,7.50
2010,09,11,07,43,7.50
2010,09,11,07,44,7.50
2010,09,11,07,45,7.60
2010,09,11,07,46,7.60
2010,09,11,07,47,7.70
2010,09,11,07,48,7.70
2010,09,11,07,49,7.80
2010,09,11,07,50,7.80
2010,09,11,07,51,7.80
2010,09,11,07,52,7.90
2010,09,11,07,53,7.90
2010,09,11,07,54,7.90
2010,09,11,07,55,8.00
2010,09,11,07,56,8.00
2010,09,11,07,57,8.10
2010,09,11,07,58,8.10
2010,09,11,07,59,8.10
2010,09,11,08,00,8.10
2010,09,11,08,01,8.10
2010,09,11,08,02,8.20
2010,09,11,08,03,8.20
2010,09,11,08,04,8.20
2010,09,11,08,05,8.20
2010,09,11,08,06,8.30
2010,09,11,08,07,8.30
2010,09,11,08,08,8.30
2010,09,11,08,09,8.40
2010,09,11,08,10,8.40
2010,09,11,08,11,8.40
2010,09,11,08,12,8.40
2010,09,11,08,13,8.50
2010,09,11,08,14,8.50
2010,09,11,08,15,8.50
2010,09,11,08,16,8.50
2010,09,11,08,17,8.50
2010,09,11,08,18,8.50
2010,09,11,08,19,8.50
2010,09,11,08,20,8.50
2010,09,11,08,21,8.50
2010,09,11,08,22,8.50
2010,09,11,08,23,8.50
2010,09,11,08,24,8.50
2010,09,11,08,25,8.50
2010,09,11,08,26,8.50
2010,09,11,08,27,8.50
2010,09,11,08,28,8.60
2010,09,11,08,29,8.60
2010,09,11,08,30,8.60
2010,09,11,08,31,8.60
2010,09,11,08,32,8.60
2010,09,11,08,33,8.70
2010,09,11,08,34,8.70
2010,09,11,08,35,8.70
2010,09,11,08,36,8.70
2010,09,11,08,37,8.80
2010,09,11,08,38,8.80
2010,09,11,08,39,8.80
2010,09,11,08,40,8.80
2010,09,11,08,41,8.90
2010,09,11,08,42,8.90
2010,09,11,08,43,9.00
2010,09,11,08,44,9.00
2010,09,11,08,45,9.10
2010,09,11,08,46,9.10
2010,09,11,08,47,9.10
2010,09,11,08,48,9.20
2010,09,11,08,49,9.20
2010,09,11,08,50,9.20
2010,09,11,08,51,9.30
2010,09,11,08,52,9.30
2010,09,11,08,53,9.30
2010,09,11,08,54,9.40
2010,09,11,08,55,9.40
2010,09,11,08,56,9.50
2010,09,11,08,57,9.50
2010,09,11,08,58,9.50
2010,09,11,08,59,9.60
2010,09,11,09,00,9.60
2010,09,11,09,01,9.60
2010,09,11,09,02,9.60
2010,09,11,09,03,9.60
2010,09,11,09,04,9.60
2010,09,11,09,05,9.60
2010,09,11,09,06,9.60
2010,09,11,09,07,9.60
2010,09,11,09,08,9.70
2010,09,11,09,09,9.70
2010,09,11,09,10,9.70
2010,09,11,09,11,9.70
2010,09,11,09,12,9.70
2010,09,11,09,13,9.80
2010,09,11,09,14,9.80
2010,09,11,09,15,9.80
2010,09,11,09,16,9.90
2010,09,11,09,17,9.90
2010,09,11,09,18,10.00
2010,09,11,09,19,10.00
2010,09,11,09,20,10.10
2010,09,11,09,21,10.10
2010,09,11,09,22,10.10
2010,09,11,09,23,10.20
2010,09,11,09,24,10.20
2010,09,11,09,25,10.20
2010,09,11,09,26,10.30
2010,09,11,09,27,10.30
2010,09,11,09,28,10.30
2010,09,11,09,29,10.40
2010,09,11,09,30,10.40
2010,09,11,09,31,10.40
2010,09,11,09,32,10.40
2010,09,11,09,33,10.50
2010,09,11,09,34,10.60
2010,09,11,09,35,10.60
2010,09,11,09,36,10.60
2010,09,11,09,37,10.70
2010,09,11,09,38,10.70
2010,09,11,09,39,10.70
2010,09,11,09,40,10.70
2010,09,11,09,41,10.80
2010,09,11,09,42,10.80
2010,09,11,09,43,10.80
2010,09,11,09,44,10.80
2010,09,11,09,45,10.90
2010,09,11,09,46,10.90
2010,09,11,09,47,11.00
2010,09,11,09,48,11.00
2010,09,11,09,49,11.00
2010,09,11,09,50,11.10
2010,09,11,09,51,11.10
2010,09,11,09,52,11.10
2010,09,11,09,53,11.20
2010,09,11,09,54,11.20
2010,09,11,09,55,11.30
2010,09,11,09,56,11.30
2010,09,11,09,57,11.30
2010,09,11,09,58,11.40
2010,09,11,09,59,11.40
2010,09,11,10,00,11.40
2010,09,11,10,01,11.50
2010,09,11,10,02,11.50
2010,09,11,10,03,11.50
2010,09,11,10,04,11.50
2010,09,11,10,05,11.60
2010,09,11,10,06,11.60
2010,09,11,10,07,11.60
2010,09,11,10,08,11.70
2010,09,11,10,09,11.70
2010,09,11,10,10,11.70
2010,09,11,10,11,11.70
2010,09,11,10,12,11.70
2010,09,11,10,13,11.80
2010,09,11,10,14,11.80
2010,09,11,10,15,11.90
2010,09,11,10,16,11.90
2010,09,11,10,17,11.90
2010,09,11,10,18,11.90
2010,09,11,10,19,11.90
2010,09,11,10,20,11.90
2010,09,11,10,21,12.00
2010,09,11,10,22,12.00
2010,09,11,10,23,12.00
2010,09,11,10,24,12.00
2010,09,11,10,25,12.10
2010,09,11,10,26,12.10
2010,09,11,10,27,12.10
2010,09,11,10,28,12.10
2010,09,11,10,29,12.10
2010,09,11,10,30,12.10
2010,09,11,10,31,12.10
2010,09,11,10,32,12.10
2010,09,11,10,33,12.10
2010,09,11,10,34,12.20
2010,09,11,10,35,12.20
2010,09,11,10,36,12.20
2010,09,11,10,37,12.20
2010,09,11,10,38,12.20
2010,09,11,10,39,12.20
2010,09,11,10,40,12.20
2010,09,11,10,41,12.30
2010,09,11,10,42,12.30
2010,09,11,10,43,12.30
2010,09,11,10,44,12.30
2010,09,11,10,45,12.30
2010,09,11,10,46,12.40
2010,09,11,10,47,12.40
2010,09,11,10,48,12.40
2010,09,11,10,49,12.50
2010,09,11,10,50,12.40
2010,09,11,10,51,12.40
2010,09,11,10,52,12.50
2010,09,11,10,53,12.50
2010,09,11,10,54,12.50
2010,09,11,10,55,12.40
2010,09,11,10,56,12.40
2010,09,11,10,57,12.40
2010,09,11,10,58,12.40
2010,09,11,10,59,12.40
2010,09,11,11,00,12.40
2010,09,11,11,01,12.40
2010,09,11,11,02,12.40
2010,09,11,11,03,12.40
2010,09,11,11,04,12.40
2010,09,11,11,05,12.40
2010,09,11,11,06,12.50
2010,09,11,11,07,12.50
2010,09,11,11,08,12.50
2010,09,11,11,09,12.50
2010,09,11,11,10,12.50
2010,09,11,11,11,12.50
2010,09,11,11,12,12.50
2010,09,11,11,13,12.50
2010,09,11,11,14,12.60
2010,09,11,11,15,12.60
2010,09,11,11,16,12.70
2010,09,11,11,17,12.70
2010,09,11,11,18,12.80
2010,09,11,11,19,12.80
2010,09,11,11,20,12.80
2010,09,11,11,21,12.90
2010,09,11,11,22,12.90
2010,09,11,11,23,12.90
2010,09,11,11,24,13.00
2010,09,11,11,25,13.00
2010,09,11,11,26,13.00
2010,09,11,11,27,13.10
2010,09,11,11,28,13.10
2010,09,11,11,29,13.10
2010,09,11,11,30,13.10
2010,09,11,11,31,13.10
2010,09,11,11,32,13.10
2010,09,11,11,33,13.20
2010,09,11,11,34,13.20
2010,09,11,11,35,13.20
2010,09,11,11,36,13.20
2010,09,11,11,37,13.20
2010,09,11,11,38,13.30
2010,09,11,11,39,13.30
2010,09,11,11,40,13.40
2010,09,11,11,41,13.40
2010,09,11,11,42,13.40
2010,09,11,11,43,13.50
2010,09,11,11,44,13.60
2010,09,11,11,45,13.60
2010,09,11,11,46,13.60
2010,09,11,11,47,13.70
2010,09,11,11,48,13.70
2010,09,11,11,49,13.80
2010,09,11,11,50,13.80
2010,09,11,11,51,13.80
2010,09,11,11,52,13.80
2010,09,11,11,53,13.90
2010,09,11,11,54,13.90
2010,09,11,11,55,13.90
2010,09,11,11,56,14.00
2010,09,11,11,57,14.00
2010,09,11,11,58,14.10
2010,09,11,11,59,14.10
2010,09,11,12,00,14.10
2010,09,11,12,01,14.20
2010,09,11,12,02,14.20
2010,09,11,12,03,14.20
2010,09,11,12,04,14.30
2010,09,11,12,05,14.40
2010,09,11,12,06,14.40
2010,09,11,12,07,14.40
2010,09,11,12,08,14.40
2010,09,11,12,09,14.30
2010,09,11,12,10,14.30
2010,09,11,12,11,14.30
2010,09,11,12,12,14.30
2010,09,11,12,13,14.30
2010,09,11,12,14,14.30
2010,09,11,12,15,14.20
2010,09,11,12,16,14.20
2010,09,11,12,17,14.20
2010,09,11,12,18,14.20
2010,09,11,12,19,14.20
2010,09,11,12,20,14.20
2010,09,11,12,21,14.20
2010,09,11,12,22,14.20
2010,09,11,12,23,14.20
2010,09,11,12,24,14.10
2010,09,11,12,25,14.10
2010,09,11,12,26,14.10
2010,09,11,12,27,14.10
2010,09,11,12,28,14.00
2010,09,11,12,29,14.00
2010,09,11,12,30,14.10
2010,09,11,12,31,14.10
2010,09,11,12,32,14.10
2010,09,11,12,33,14.10
2010,09,11,12,34,14.10
2010,09,11,12,35,14.10
2010,09,11,12,36,14.10
2010,09,11,12,37,14.10
2010,09,11,12,38,14.20
2010,09,11,12,39,14.20
2010,09,11,12,40,14.30
2010,09,11,12,41,14.30
2010,09,11,12,42,14.40
2010,09,11,12,43,14.40
2010,09,11,12,44,14.40
2010,09,11,12,45,14.50
2010,09,11,12,46,14.50
2010,09,11,12,47,14.60
2010,09,11,12,48,14.60
2010,09,11,12,49,14.60
2010,09,11,12,50,14.60
2010,09,11,12,51,14.70
2010,09,11,12,52,14.70
2010,09,11,12,53,14.70
2010,09,11,12,54,14.80
2010,09,11,12,55,14.80
2010,09,11,12,56,14.80
2010,09,11,12,57,14.90
2010,09,11,12,58,15.00
2010,09,11,12,59,15.00
2010,09,11,13,00,15.10
2010,09,11,13,01,15.10
2010,09,11,13,02,15.10
2010,09,11,13,03,15.00
2010,09,11,13,04,15.00
2010,09,11,13,05,15.00
2010,09,11,13,06,15.00
2010,09,11,13,07,15.00
2010,09,11,13,08,15.00
2010,09,11,13,09,15.00
2010,09,11,13,10,15.10
2010,09,11,13,11,15.10
2010,09,11,13,12,15.10
2010,09,11,13,13,15.10
2010,09,11,13,14,15.00
2010,09,11,13,15,15.10
2010,09,11,13,16,15.10
2010,09,11,13,17,15.10
2010,09,11,13,18,15.10
2010,09,11,13,19,15.10
2010,09,11,13,20,15.10
2010,09,11,13,21,15.10
2010,09,11,13,22,15.10
2010,09,11,13,23,15.10
2010,09,11,13,24,15.10
2010,09,11,13,25,15.10
2010,09,11,13,26,15.20
2010,09,11,13,27,15.20
2010,09,11,13,28,15.20
2010,09,11,13,29,15.30
2010,09,11,13,30,15.30
2010,09,11,13,31,15.30
2010,09,11,13,32,15.30
2010,09,11,13,33,15.30
2010,09,11,13,34,15.40
2010,09,11,13,35,15.40
2010,09,11,13,36,15.40
2010,09,11,13,37,15.40
2010,09,11,13,38,15.40
2010,09,11,13,39,15.40
2010,09,11,13,40,15.40
2010,09,11,13,41,15.40
2010,09,11,13,42,15.40
2010,09,11,13,43,15.30
2010,09,11,13,44,15.30
2010,09,11,13,45,15.30
2010,09,11,13,46,15.30
2010,09,11,13,47,15.20
2010,09,11,13,48,15.20
2010,09,11,13,49,15.30
2010,09,11,13,50,15.30
2010,09,11,13,51,15.30
2010,09,11,13,52,15.40
2010,09,11,13,53,15.40
2010,09,11,13,54,15.40
2010,09,11,13,55,15.40
2010,09,11,13,56,15.40
2010,09,11,13,57,15.40
2010,09,11,13,58,15.50
2010,09,11,13,59,15.50
2010,09,11,14,00,15.50
2010,09,11,14,01,15.50
2010,09,11,14,02,15.60
2010,09,11,14,03,15.60
2010,09,11,14,04,15.60
2010,09,11,14,05,15.60
2010,09,11,14,06,15.60
2010,09,11,14,07,15.50
2010,09,11,14,08,15.40
2010,09,11,14,09,15.40
2010,09,11,14,10,15.30
2010,09,11,14,11,15.30
2010,09,11,14,12,15.30
2010,09,11,14,13,15.30
2010,09,11,14,14,15.30
2010,09,11,14,15,15.30
2010,09,11,14,16,15.30
2010,09,11,14,17,15.20
2010,09,11,14,18,15.20
2010,09,11,14,19,15.20
2010,09,11,14,20,15.20
2010,09,11,14,21,15.20
2010,09,11,14,22,15.10
2010,09,11,14,23,15.00
2010,09,11,14,24,14.90
2010,09,11,14,25,14.80
2010,09,11,14,26,14.70
2010,09,11,14,27,14.60
2010,09,11,14,28,14.50
2010,09,11,14,29,14.50
2010,09,11,14,30,14.40
2010,09,11,14,31,14.30
2010,09,11,14,32,14.30
2010,09,11,14,33,14.30
2010,09,11,14,34,14.20
2010,09,11,14,35,14.20
2010,09,11,14,36,14.20
2010,09,11,14,37,14.10
2010,09,11,14,38,14.10
2010,09,11,14,39,14.10
2010,09,11,14,40,14.10
2010,09,11,14,41,14.10
2010,09,11,14,42,14.10
2010,09,11,14,43,14.20
2010,09,11,14,44,14.20
2010,09,11,14,45,14.20
2010,09,11,14,46,14.20
2010,09,11,14,47,14.20
2010,09,11,14,48,14.20
2010,09,11,14,49,14.20
2010,09,11,14,50,14.30
2010,09,11,14,51,14.30
2010,09,11,14,52,14.30
2010,09,11,14,53,14.30
2010,09,11,14,54,14.30
2010,09,11,14,55,14.30
2010,09,11,14,56,14.30
2010,09,11,14,57,14.30
2010,09,11,14,58,14.30
2010,09,11,14,59,14.30
2010,09,11,15,00,14.30
2010,09,11,15,01,14.30
2010,09,11,15,02,14.30
2010,09,11,15,03,14.30
2010,09,11,15,04,14.30
2010,09,11,15,05,14.30
2010,09,11,15,06,14.20
2010,09,11,15,07,14.20
2010,09,11,15,08,14.20
2010,09,11,15,09,14.20
2010,09,11,15,10,14.20
2010,09,11,15,11,14.20
2010,09,11,15,12,14.10
2010,09,11,15,13,14.10
2010,09,11,15,14,14.10
2010,09,11,15,15,14.10
2010,09,11,15,16,14.10
2010,09,11,15,17,14.10
2010,09,11,15,18,14.10
2010,09,11,15,19,14.10
2010,09,11,15,20,14.10
2010,09,11,15,21,14.10
2010,09,11,15,22,14.10
2010,09,11,15,23,14.10
2010,09,11,15,24,14.10
2010,09,11,15,25,14.10
2010,09,11,15,26,14.10
2010,09,11,15,27,14.00
2010,09,11,15,28,14.00
2010,09,11,15,29,14.00
2010,09,11,15,30,14.10
2010,09,11,15,31,14.00
2010,09,11,15,32,14.00
2010,09,11,15,33,14.00
2010,09,11,15,34,14.00
2010,09,11,15,35,14.10
2010,09,11,15,36,14.00
2010,09,11,15,37,14.10
2010,09,11,15,38,14.10
2010,09,11,15,39,14.10
2010,09,11,15,40,14.10
2010,09,11,15,41,14.10
2010,09,11,15,42,14.10
2010,09,11,15,43,14.10
2010,09,11,15,44,14.10
2010,09,11,15,45,14.10
2010,09,11,15,46,14.10
2010,09,11,15,47,14.10
2010,09,11,15,48,14.10
2010,09,11,15,49,14.10
2010,09,11,15,50,14.10
2010,09,11,15,51,14.10
2010,09,11,15,52,14.10
2010,09,11,15,53,14.10
2010,09,11,15,54,14.10
2010,09,11,15,55,14.10
2010,09,11,15,56,14.10
2010,09,11,15,57,14.10
2010,09,11,15,58,14.10
2010,09,11,15,59,14.20
2010,09,11,16,00,14.20
2010,09,11,16,01,14.20
2010,09,11,16,02,14.20
2010,09,11,16,03,14.20
2010,09,11,16,04,14.20
2010,09,11,16,05,14.20
2010,09,11,16,06,14.20
2010,09,11,16,07,14.20
2010,09,11,16,08,14.20
2010,09,11,16,09,14.20
2010,09,11,16,10,14.20
2010,09,11,16,11,14.20
2010,09,11,16,12,14.30
2010,09,11,16,13,14.30
2010,09,11,16,14,14.30
2010,09,11,16,15,14.30
2010,09,11,16,16,14.20
2010,09,11,16,17,14.20
2010,09,11,16,18,14.20
2010,09,11,16,19,14.20
2010,09,11,16,20,14.20
2010,09,11,16,21,14.20
2010,09,11,16,22,14.20
2010,09,11,16,23,14.20
2010,09,11,16,24,14.20
2010,09,11,16,25,14.20
2010,09,11,16,26,14.20
2010,09,11,16,27,14.20
2010,09,11,16,28,14.20
2010,09,11,16,29,14.20
2010,09,11,16,30,14.20
2010,09,11,16,31,14.20
2010,09,11,16,32,14.20
2010,09,11,16,33,14.30
2010,09,11,16,34,14.30
2010,09,11,16,35,14.30
2010,09,11,16,36,14.30
2010,09,11,16,37,14.30
2010,09,11,16,38,14.40
2010,09,11,16,39,14.40
2010,09,11,16,40,14.40
2010,09,11,16,41,14.40
2010,09,11,16,42,14.40
2010,09,11,16,43,14.40
2010,09,11,16,44,14.40
2010,09,11,16,45,14.40
2010,09,11,16,46,14.40
2010,09,11,16,47,14.40
2010,09,11,16,48,14.40
2010,09,11,16,49,14.40
2010,09,11,16,50,14.50
2010,09,11,16,51,14.50
2010,09,11,16,52,14.50
2010,09,11,16,53,14.50
2010,09,11,16,54,14.60
2010,09,11,16,55,14.60
2010,09,11,16,56,14.60
2010,09,11,16,57,14.60
2010,09,11,16,58,14.60
2010,09,11,16,59,14.60
2010,09,11,17,00,14.60
2010,09,11,17,01,14.60
2010,09,11,17,02,14.60
2010,09,11,17,03,14.60
2010,09,11,17,04,14.50
2010,09,11,17,05,14.50
2010,09,11,17,06,14.50
2010,09,11,17,07,14.50
2010,09,11,17,08,14.50
2010,09,11,17,09,14.50
2010,09,11,17,10,14.50
2010,09,11,17,11,14.50
2010,09,11,17,12,14.40
2010,09,11,17,13,14.40
2010,09,11,17,14,14.40
2010,09,11,17,15,14.40
2010,09,11,17,16,14.50
2010,09,11,17,17,14.50
2010,09,11,17,18,14.50
2010,09,11,17,19,14.50
2010,09,11,17,20,14.50
2010,09,11,17,21,14.50
2010,09,11,17,22,14.50
2010,09,11,17,23,14.50
2010,09,11,17,24,14.50
2010,09,11,17,25,14.50
2010,09,11,17,26,14.60
2010,09,11,17,27,14.60
2010,09,11,17,28,14.60
2010,09,11,17,29,14.60
2010,09,11,17,30,14.60
2010,09,11,17,31,14.60
2010,09,11,17,32,14.60
2010,09,11,17,33,14.60
2010,09,11,17,34,14.60
2010,09,11,17,35,14.60
2010,09,11,17,36,14.60
2010,09,11,17,37,14.60
2010,09,11,17,38,14.60
2010,09,11,17,39,14.60
2010,09,11,17,40,14.60
2010,09,11,17,41,14.60
2010,09,11,17,42,14.60